STARLINK-31951, 59890

Orbit data source: Space-Track

STARLINK-31951, 59890 is a payload satellite owned by SpaceX/Seattle (US) in LEO that was launched on Tue, 28 May 2024 UTC via an FALCON 9 launch vehicle from the Air Force Eastern Test Range (AFETR). Payload-class satellites include a variety of spacecraft equipped with specific instruments for various scientific and technological missions. These include communications satellites like Starlink; space stations such as the ISS; scientific satellites like the Hubble; Earth observation satellites from companies like Planet Labs, Umbra, and HawkEye 360; GPS; miniature CubeSats for education and research; and military/defense satellites.

Loading next visibility...
Identifier
59890, 2024-100F
Orbit
LEO
Country
Flag of USUS
Related business
Manufacturer
SpaceX/Seattle
Mission
Operational Commercial Communications
Bus & Motor
STARLINK V2M, Unknown motor
Mass
730 kg wet, ~700 kg dry
Launch date (UTC)
2024-05-28 (1 year ago)
Launch vehicle
FALCON 9
Launch site
Air Force Eastern Test Range (AFETR)
Object type
Payload
Rocket body
Debris
Shape & HBR
Box + 2 Pan, 17.7 m
Radar Cross Section
33.884 m², Large (>1 m²)

Expand to show TLE details & history
Last TLE update: 21 hours ago

TLE from 21 hours ago
0 STARLINK-31951
1 59890U 24100F   25310.79181141  .00001704  00000-0  71431-4 0  9993
2 59890  43.0022  99.2546 0001507 284.1319  75.9366 15.27586040 82262
Epoch: 2025-11-06T19:00Z
TLE epoch observation values (Epoch: 2025-11-06T19:00:12.505Z)
Latitude
0.00003°
Longitude
127.95747°
Altitude
482.556 km
Speed
7.626 km/s
True Right ascension
06h 37m 01s
True Declination
0° 00' 00"
Sunlit
Object was in full shadow at epoch
Visualization orbit readout
Latitude
Unknown
Longitude
Unknown
Altitude
Unknown
Speed
Unknown
Apparent Right ascension
Unknown
Apparent Declination
Unknown
Sunlit
N/A
Visualization observer readout
Local Sidereal Time
12:35:08
Azimuth
Unknown
Elevation
Unknown
Doppler factor
Unknown
Orbital elements
Apogee altitude
486.01 km
Perigee altitude
483.942 km
Semi-major axis
6,863.113 km
Eccentricity
0.00015
Inclination
43.0022°
RAAN
99.2546°
Arg. of periapsis
284.1319°
True anomaly
75.95335°
Mean anomaly
75.9366°
Eccentric anomaly
75.94498°
Mean motion
3.81735 °/min
Orbital period
94.31 mins
BSTAR
0.000071431
Loading maneuver chart data...
Computing Atmospheric mass density...
Loading historical data...
Loading historical data...
Loading historical data...
Loading historical data...
Loading historical data...
Loading historical data...
Loading historical data...

Documentation

Showing up to 5 results
|